COSMOS 970 DEB

Satellite information

Favourite Embed

Satellite Type and Status

DEBRISIN ORBIT

Key statistics

Satellite COSMOS 970 DEB at a glance.

Uptime

17525

Days in orbit

Revolutions

≈ 13.7

Per day

Orbit

LEO

Low Earth Orbit

Inclination

65.8

Latest

Satellite identification and parameters

Extended collection of information and parameters for COSMOS 970 DEB.

Object identification

Identified? True

Debris? True

Object name: COSMOS 970 DEB

International designator: 1977-121DU

Object number (NORAD): 65007

Object ID (CCSDS): 65007

Country: COMMONWEALTH OF INDEPENDENT STATES (CIS)

Current information (Y/N): Y

RCS size: SMALL

Orbital parameters

Period: 105.129 minutes

Inclination: 65.8389 deg

SMA: 7378.614 km

Apoapsis: 1103.896 km

Periapsis: 897.062 km

RAAN: 205.4032 deg

Eccentricy: 0.01401578

Argument of periapsis: 252.3993 deg

Mean anomaly: 284.5524 deg

Mean motion: 13.69747609 rev/day

Mean motion (dot): 0.00000366 rev/day2

B* drag term: 0.00047467445 1/REarth

Two-line elements (TLE)

Creation date: Dec. 8, 2025, 3:46 a.m.

Reference frame: TEME

Reference center: EARTH

Epoch: Dec. 7, 2025, 8:39 a.m. UTC

TLE line 0: 0 COSMOS 970 DEB

TLE line 1: 1 65007U 77121DU 25341.36109209 .00000366 00000-0 47467-3 0 9997

TLE line 2: 2 65007 65.8389 205.4032 0140158 252.3993 284.5524 13.69747609601826

Live tracking on map

Real-time ground track for satellite COSMOS 970 DEB.

In-orbit conjunctions

A list of the most updated potential collisions computed for object COSMOS 970 DEB.

Target Orbit TCA Probability of collision Miss distance Type
IRS 1B SSO 2025-08-17 19:28:04 0.0001758333 262.0 (m) PAYLOAD

Associated space launch

Second generation ASAT satellite

COSMOS 970 DEB was lifted into orbit during the mission ‘Tsiklon-2 | IS-A 8’, on board a Tsiklon-2 space rocket.

The launch took place on Dec. 21, 1977, 10:35 a.m. from 90.

For more information about the launch, click the button.

Launch to space Tsiklon-2 | IS-A 8
Tsiklon-2 | IS-A 8

Agency: N/A

Status: Launch Successful

Launch date: Dec. 21, 1977, 10:35 a.m. UTC

Rocket: Tsiklon-2

Launch pad: 90

Location: Baikonur Cosmodrome, Republic of Kazakhstan

...

Latest news about this satellite

There are no fresh news available about this satellite. Check back as we update our databases every day.


Newsletter sign-up

Weekly statistics, charts and insights to help you stay on top of the space industry.